Staples, MN

7:03 AM CST on February 24, 2017 (GMT -0600)
Staples Municipal

Weather History for KSAZ - November, 2012

Change the Weather History Date:

Friday, November 2, 2012

  Actual Average Record
Temperature  
Mean Temperature 30 °F -  
Max Temperature 35 °F 42 °F 66 °F (2015)
Min Temperature 24 °F 27 °F 15 °F (1996)
Degree Days  
Heating Degree Days 36    
Moisture  
Dew Point 24 °F    
Average Humidity 77    
Maximum Humidity 93    
Minimum Humidity 60    
Precipitation  
Precipitation 0.00 in - - ()
Sea Level Pressure  
Sea Level Pressure 30.12 in    
Wind  
Wind Speed 2 mph (NE)    
Max Wind Speed 6 mph    
Max Gust Speed -    
Visibility 10 miles    
Events      
Averages and records for this station are not official NWS values.
T = Trace of Precipitation, MM = Missing Value Source: NWS Daily Summary

Daily Weather History Graph

Daily Weather History Graph

Search for Another Location

Airport or City:

Trip Planner

Search our weather history database for the weather conditions in past years. The results will help you decide how hot, cold, wet, or windy it might be!

Date:

Astronomy

Nov. 02, 2012 Rise Set
Actual Time 8:02 AM CDT 6:02 PM CDT
Civil Twilight 7:31 AM CDT 6:33 PM CDT
Nautical Twilight 6:55 AM CDT 7:09 PM CDT
Astronomical Twilight 6:20 AM CDT 7:44 PM CDT
Moon 8:43 PM CDT (11/2) 11:31 AM CDT (11/2)
Length of Visible Light 11h 02m
Length of Day
9h 59m
Waning Gibbous, 87% of the Moon is Illuminated
Nov 2
Waning Gibbous
Nov 6
Last Quarter
Nov 13
New
Nov 20
First Quarter
Nov 28
Full

Hourly Weather History & Observations

Time (CDT) Temp. Windchill Dew Point Humidity Pressure Visibility Wind Dir Wind Speed Gust Speed Precip Events Conditions
12:13 AM 26.6 °F 20.0 °F 23.0 °F 86% 30.05 in 10.0 mi NE 5.8 mph - N/A   Mostly Cloudy
12:34 AM 26.6 °F - 23.0 °F 86% 30.08 in 10.0 mi Calm Calm - N/A   Overcast
12:53 AM 26.6 °F - 23.0 °F 86% 30.09 in 10.0 mi Calm Calm - N/A   Overcast
1:14 AM 26.6 °F - 24.8 °F 93% 30.09 in 10.0 mi Calm Calm - N/A   Overcast
1:33 AM 28.4 °F - 23.0 °F 80% 30.08 in 10.0 mi Calm Calm - N/A   Overcast
1:53 AM 28.4 °F - 23.0 °F 80% 30.09 in 10.0 mi Calm Calm - N/A   Overcast
2:14 AM 28.4 °F 24.6 °F 23.0 °F 80% 30.09 in 10.0 mi ENE 3.5 mph - N/A   Overcast
2:33 AM 28.4 °F 23.3 °F 23.0 °F 80% 30.09 in 10.0 mi ENE 4.6 mph - N/A   Overcast
2:53 AM 28.4 °F 23.3 °F 23.0 °F 80% 30.09 in 10.0 mi NE 4.6 mph - N/A   Overcast
3:13 AM 28.4 °F 23.3 °F 23.0 °F 80% 30.10 in 10.0 mi ENE 4.6 mph - N/A   Overcast
3:33 AM 28.4 °F 23.3 °F 23.0 °F 80% 30.10 in 10.0 mi ENE 4.6 mph - N/A   Overcast
3:54 AM 26.6 °F 21.2 °F 23.0 °F 86% 30.09 in 10.0 mi NE 4.6 mph - N/A   Overcast
4:13 AM 26.6 °F 21.2 °F 23.0 °F 86% 30.09 in 10.0 mi ENE 4.6 mph - N/A   Overcast
4:33 AM 26.6 °F 21.2 °F 23.0 °F 86% 30.09 in 10.0 mi NE 4.6 mph - N/A   Overcast
4:54 AM 26.6 °F 22.6 °F 23.0 °F 86% 30.09 in 10.0 mi ENE 3.5 mph - N/A   Overcast
5:13 AM 26.6 °F 22.6 °F 23.0 °F 86% 30.10 in 10.0 mi NE 3.5 mph - N/A   Overcast
5:33 AM 26.6 °F - 23.0 °F 86% 30.10 in 10.0 mi Calm Calm - N/A   Overcast
5:53 AM 26.6 °F - 23.0 °F 86% 30.10 in 10.0 mi Calm Calm - N/A   Overcast
6:13 AM 26.6 °F 22.6 °F 23.0 °F 86% 30.10 in 10.0 mi NNE 3.5 mph - N/A   Overcast
6:34 AM 26.6 °F - 23.0 °F 86% 30.11 in 10.0 mi Calm Calm - N/A   Overcast
6:53 AM 26.6 °F 20.0 °F 23.0 °F 86% 30.11 in 10.0 mi NNE 5.8 mph - N/A   Overcast
7:13 AM 26.6 °F 22.6 °F 23.0 °F 86% 30.11 in 10.0 mi NNE 3.5 mph - N/A   Overcast
7:33 AM 26.6 °F - 23.0 °F 86% 30.11 in 10.0 mi Calm Calm - N/A   Scattered Clouds
7:53 AM 26.6 °F - 23.0 °F 86% 30.12 in 10.0 mi Calm Calm - N/A   Clear
8:13 AM 26.6 °F - 23.0 °F 86% 30.12 in 10.0 mi Calm Calm - N/A   Clear
8:34 AM 24.8 °F - 21.2 °F 86% 30.13 in 10.0 mi Calm Calm - N/A   Clear
8:53 AM 26.6 °F - 23.0 °F 86% 30.13 in 10.0 mi Calm Calm - N/A   Clear
9:13 AM 26.6 °F - 23.0 °F 86% 30.13 in 10.0 mi Calm Calm - N/A   Clear
9:34 AM 26.6 °F 22.6 °F 23.0 °F 86% 30.13 in 10.0 mi ENE 3.5 mph - N/A   Clear
9:53 AM 28.4 °F 23.3 °F 23.0 °F 80% 30.14 in 10.0 mi ENE 4.6 mph - N/A   Clear
10:13 AM 28.4 °F 24.6 °F 23.0 °F 80% 30.15 in 10.0 mi East 3.5 mph - N/A   Scattered Clouds
10:34 AM 28.4 °F 23.3 °F 24.8 °F 86% 30.16 in 10.0 mi NNE 4.6 mph - N/A   Mostly Cloudy
10:53 AM 30.2 °F - 24.8 °F 80% 30.16 in 10.0 mi Calm Calm - N/A   Mostly Cloudy
11:13 AM 30.2 °F - 24.8 °F 80% 30.15 in 10.0 mi Calm Calm - N/A   Scattered Clouds
11:34 AM 30.2 °F - 24.8 °F 80% 30.15 in 10.0 mi Calm Calm - N/A   Scattered Clouds
11:53 AM 30.2 °F - 24.8 °F 80% 30.15 in 10.0 mi Calm Calm - N/A   Clear
12:13 PM 32.0 °F - 24.8 °F 75% 30.14 in 10.0 mi Calm Calm - N/A   Clear
12:34 PM 32.0 °F - 24.8 °F 75% 30.14 in 10.0 mi Calm Calm - N/A   Clear
12:53 PM 32.0 °F - 24.8 °F 75% 30.14 in 10.0 mi Calm Calm - N/A   Scattered Clouds
1:13 PM 32.0 °F - 24.8 °F 75% 30.14 in 10.0 mi Calm Calm - N/A   Scattered Clouds
1:33 PM 32.0 °F - 24.8 °F 75% 30.13 in 10.0 mi Calm Calm - N/A   Scattered Clouds
1:53 PM 33.8 °F - 24.8 °F 70% 30.13 in 10.0 mi Calm Calm - N/A   Scattered Clouds
2:14 PM 33.8 °F - 24.8 °F 70% 30.13 in 10.0 mi Calm Calm - N/A   Scattered Clouds
2:33 PM 33.8 °F - 24.8 °F 70% 30.12 in 10.0 mi Calm Calm - N/A   Scattered Clouds
2:53 PM 33.8 °F - 24.8 °F 70% 30.12 in 10.0 mi Calm Calm - N/A   Scattered Clouds
3:14 PM 33.8 °F - 24.8 °F 70% 30.12 in 10.0 mi Calm Calm - N/A   Mostly Cloudy
3:33 PM 33.8 °F - 24.8 °F 70% 30.12 in 10.0 mi Calm Calm - N/A   Scattered Clouds
3:53 PM 35.6 °F - 23.0 °F 60% 30.12 in 10.0 mi Calm Calm - N/A   Mostly Cloudy
4:14 PM 35.6 °F 32.8 °F 23.0 °F 60% 30.12 in 10.0 mi North 3.5 mph - N/A   Scattered Clouds
4:33 PM 35.6 °F - 23.0 °F 60% 30.12 in 10.0 mi Calm Calm - N/A   Mostly Cloudy
4:53 PM 35.6 °F - 23.0 °F 60% 30.12 in 10.0 mi Calm Calm - N/A   Overcast
5:14 PM 35.6 °F - 23.0 °F 60% 30.12 in 10.0 mi Calm Calm - N/A   Overcast
5:33 PM 35.6 °F - 23.0 °F 60% 30.12 in 10.0 mi Calm Calm - N/A   Overcast
5:53 PM 35.6 °F - 23.0 °F 60% 30.12 in 10.0 mi Calm Calm - N/A   Overcast
6:14 PM 33.8 °F - 23.0 °F 65% 30.12 in 10.0 mi Calm Calm - N/A   Overcast
6:33 PM 33.8 °F - 23.0 °F 65% 30.12 in 10.0 mi Calm Calm - N/A   Overcast
6:53 PM 33.8 °F - 23.0 °F 65% 30.13 in 10.0 mi Calm Calm - N/A   Overcast
7:14 PM 33.8 °F - 21.2 °F 60% 30.13 in 10.0 mi Calm Calm - N/A   Overcast
7:33 PM 33.8 °F - 21.2 °F 60% 30.13 in 10.0 mi Calm Calm - N/A   Overcast
7:53 PM 33.8 °F - 24.8 °F 70% 30.14 in 10.0 mi Calm Calm - N/A   Overcast
8:14 PM 33.8 °F - 26.6 °F 75% 30.14 in 10.0 mi Calm Calm - N/A   Overcast
8:33 PM 33.8 °F - 24.8 °F 70% 30.14 in 10.0 mi Calm Calm - N/A   Overcast
8:53 PM 33.8 °F - 26.6 °F 75% 30.15 in 10.0 mi Calm Calm - N/A   Overcast
9:13 PM 32.0 °F 28.7 °F 26.6 °F 80% 30.14 in 10.0 mi WNW 3.5 mph - N/A   Overcast
9:34 PM 32.0 °F - 26.6 °F 80% 30.14 in 10.0 mi Calm Calm - N/A   Overcast
9:53 PM 33.8 °F - 24.8 °F 70% 30.14 in 10.0 mi Calm Calm - N/A   Overcast
10:13 PM 33.8 °F 29.6 °F 24.8 °F 70% 30.13 in 10.0 mi ENE 4.6 mph - N/A   Overcast
10:34 PM 33.8 °F - 24.8 °F 70% 30.14 in 10.0 mi Calm Calm - N/A   Overcast
10:53 PM 33.8 °F - 24.8 °F 70% 30.15 in 10.0 mi Calm Calm - N/A   Overcast
11:13 PM 33.8 °F - 24.8 °F 70% 30.15 in 10.0 mi Calm Calm - N/A   Overcast
11:34 PM 33.8 °F - 24.8 °F 70% 30.15 in 10.0 mi Calm Calm - N/A   Overcast
11:53 PM 30.2 °F 26.7 °F 26.6 °F 86% 30.16 in 10.0 mi WNW 3.5 mph - N/A   Overcast